Jaffrey, NH

4:13 PM EDT on August 27, 2016 (GMT -0400)
Jaffrey Airport-Silver Ranch

Weather History for KAFN - August, 2012

Change the Weather History Date:

Saturday, August 18, 2012

  Actual Average Record
Temperature  
Mean Temperature 67 °F -  
Max Temperature 78 °F 76 °F 89 °F (2002)
Min Temperature 55 °F 55 °F 48 °F (2005)
Cooling Degree Days 2    
Growing Degree Days 17 (Base 50)    
Moisture  
Dew Point 55 °F    
Average Humidity 66    
Maximum Humidity 87    
Minimum Humidity 36    
Precipitation  
Precipitation 0.06 in - - ()
Sea Level Pressure  
Sea Level Pressure 29.90 in    
Wind  
Wind Speed 1 mph (SW)    
Max Wind Speed 6 mph    
Max Gust Speed -    
Visibility 10 miles    
Events Rain    
Averages and records for this station are not official NWS values.
T = Trace of Precipitation, MM = Missing Value Source: NWS Daily Summary

Daily Weather History Graph

Daily Weather History Graph

Search for Another Location

Airport or City:

Trip Planner

Search our weather history database for the weather conditions in past years. The results will help you decide how hot, cold, wet, or windy it might be!

Date:

Astronomy

Aug. 18, 2012 Rise Set
Actual Time 5:58 AM EDT 7:44 PM EDT
Civil Twilight 5:27 AM EDT 8:14 PM EDT
Nautical Twilight 4:50 AM EDT 8:51 PM EDT
Astronomical Twilight 4:11 AM EDT 9:30 PM EDT
Moon 7:06 AM EDT (8/18) 7:55 PM EDT (8/18)
Length of Visible Light 14h 46m
Length of Day
13h 46m
New Moon, 1% of the Moon is Illuminated
Aug 18
New Moon
Aug 24
First Quarter
Aug 31
Full
Sep 8
Last Quarter
Sep 15
New

Hourly Weather History & Observations

Time (EDT) Temp. Dew Point Humidity Pressure Visibility Wind Dir Wind Speed Gust Speed Precip Events Conditions
12:52 AM 68.0 °F 63.0 °F 84% 29.86 in 8.0 mi Calm Calm - N/A   Overcast
1:52 AM 68.0 °F 63.0 °F 84% 29.86 in 7.0 mi Calm Calm - N/A   Overcast
2:52 AM 66.0 °F 61.0 °F 84% 29.86 in 7.0 mi Calm Calm - N/A   Overcast
3:52 AM 66.9 °F 60.1 °F 79% 29.88 in 10.0 mi SW 3.5 mph - 0.00 in Rain Light Rain
4:52 AM 64.9 °F 59.0 °F 81% 29.89 in 10.0 mi Calm Calm - 0.03 in Rain Light Rain
5:52 AM 64.0 °F 59.0 °F 84% 29.89 in 10.0 mi Calm Calm - 0.02 in Rain Light Rain
6:52 AM 63.0 °F 59.0 °F 87% 29.90 in 10.0 mi Calm Calm - 0.01 in   Overcast
9:52 AM 66.0 °F 57.9 °F 75% 29.91 in 10.0 mi Calm Calm - N/A   Clear
10:52 AM 69.1 °F 57.9 °F 68% 29.91 in 10.0 mi Calm Calm - N/A   Clear
11:27 AM 71.6 °F 57.2 °F 60% 29.91 in 10.0 mi Calm Calm - N/A   Mostly Cloudy
11:40 AM 71.6 °F 57.2 °F 60% 29.92 in 10.0 mi Variable 3.5 mph - N/A   Mostly Cloudy
11:52 AM 71.1 °F 55.0 °F 57% 29.92 in 10.0 mi Variable 3.5 mph - N/A   Mostly Cloudy
12:52 PM 75.9 °F 54.0 °F 46% 29.90 in 10.0 mi Variable 3.5 mph - N/A   Mostly Cloudy
1:52 PM 73.9 °F 53.1 °F 48% 29.89 in 10.0 mi Variable 5.8 mph - N/A   Mostly Cloudy
2:52 PM 75.9 °F 51.1 °F 42% 29.89 in 10.0 mi Variable 4.6 mph - N/A   Mostly Cloudy
3:52 PM 75.9 °F 48.9 °F 38% 29.88 in 10.0 mi SW 3.5 mph - N/A   Scattered Clouds
4:52 PM 77.0 °F 48.9 °F 37% 29.87 in 10.0 mi WSW 3.5 mph - N/A   Clear
5:52 PM 77.0 °F 48.0 °F 36% 29.87 in 10.0 mi Variable 3.5 mph - N/A   Clear
6:52 PM 73.9 °F 48.9 °F 41% 29.88 in 10.0 mi Variable 3.5 mph - N/A   Clear
7:52 PM 64.9 °F 54.0 °F 68% 29.91 in 10.0 mi Calm Calm - N/A   Clear
8:52 PM 62.1 °F 53.1 °F 72% 29.93 in 10.0 mi Calm Calm - N/A   Clear
9:52 PM 59.0 °F 53.1 °F 81% 29.94 in 10.0 mi Calm Calm - N/A   Clear
10:52 PM 57.0 °F 52.0 °F 83% 29.94 in 10.0 mi Calm Calm - N/A   Clear
11:52 PM 55.9 °F 51.1 °F 84% 29.96 in 10.0 mi Calm Calm - N/A   Clear